Rijeka, Croatia

10:32 PM CET on November 17, 2018 (GMT +0100)
Rijeka

Weather History for LDRI - November, 2018

Change the Weather History Date:

Friday, November 9, 2018

  Actual Average Record
Temperature  
Mean Temperature 57 °F -  
Max Temperature 64 °F - - ()
Min Temperature 50 °F - - ()
Degree Days  
Heating Degree Days 8    
Growing Degree Days 7 (Base 50)    
Moisture  
Dew Point 51 °F    
Average Humidity 85    
Maximum Humidity 100    
Minimum Humidity 63    
Precipitation  
Precipitation 0.00 in - - ()
Sea Level Pressure  
Sea Level Pressure 30.08 in    
Wind  
Wind Speed 2 mph ()    
Max Wind Speed 10 mph    
Max Gust Speed -    
Visibility 6.2 miles    
Events Fog    
T = Trace of Precipitation, MM = Missing Value Source: Averaged Metar Reports

Daily Weather History Graph

Daily Weather History Graph

Search for Another Location

Airport or City:

Astronomy

Nov. 09, 2018 Rise Set
Actual Time 6:51 AM CET 4:39 PM CET
Civil Twilight 6:19 AM CET 5:10 PM CET
Nautical Twilight 5:44 AM CET 5:45 PM CET
Astronomical Twilight 5:10 AM CET 6:20 PM CET
Moon 8:25 AM CET (11/9) 6:10 PM CET (11/9)
Length of Visible Light 10h 50m
Length of Day
9h 47m
Waxing Crescent, 4% of the Moon is Illuminated
Nov 9
Waxing Crescent
Nov 15
First Quarter
Nov 23
Full
Nov 30
Last Quarter
Dec 7
New

Hourly Weather History & Observations

Time (CET) Temp. Dew Point Humidity Pressure Visibility Wind Dir Wind Speed Gust Speed Precip Events Conditions
12:00 AM 55.4 °F 53.6 °F 94% 30.12 in 6.2 mi West 4.6 mph - N/A Fog Shallow Fog
12:30 AM 53.6 °F 51.8 °F 94% 30.12 in - West 3.5 mph - N/A   Clear
1:00 AM 53.6 °F 51.8 °F 94% 30.09 in - WSW 1.2 mph - N/A   Clear
1:30 AM 51.8 °F 50.0 °F 94% 30.09 in - West 4.6 mph - N/A   Clear
2:00 AM 53.6 °F 51.8 °F 94% 30.09 in - SW 3.5 mph - N/A   Clear
2:30 AM 53.6 °F 51.8 °F 94% 30.09 in - SW 3.5 mph - N/A   Clear
3:00 AM 55.4 °F 53.6 °F 94% 30.06 in - Calm Calm - N/A   Clear
3:30 AM 51.8 °F 50.0 °F 94% 30.06 in - Calm Calm - N/A   Clear
4:30 AM 51.8 °F 50.0 °F 94% 30.09 in - ESE 3.5 mph - N/A   Clear
5:00 AM 51.8 °F 50.0 °F 94% 30.09 in - Calm Calm - N/A   Clear
5:30 AM 51.8 °F 51.8 °F 100% 30.09 in - SSE 3.5 mph - N/A   Clear
6:00 AM 51.8 °F 50.0 °F 94% 30.09 in - Calm Calm - N/A   Clear
6:30 AM 50.0 °F 48.2 °F 94% 30.09 in - ESE 3.5 mph - N/A   Clear
7:00 AM 50.0 °F 50.0 °F 100% 30.09 in - ESE 3.5 mph - N/A   Clear
7:30 AM 50.0 °F 48.2 °F 94% 30.09 in - Calm Calm - N/A   Clear
8:00 AM 53.6 °F 51.8 °F 94% 30.09 in - Calm Calm - N/A   Clear
8:30 AM 59.0 °F 53.6 °F 82% 30.09 in - Calm Calm - N/A   Clear
9:00 AM 59.0 °F 51.8 °F 77% 30.09 in - ESE 1.2 mph - N/A   Clear
9:30 AM 60.8 °F 53.6 °F 77% 30.12 in - ESE 4.6 mph - N/A   Clear
10:00 AM 60.8 °F 53.6 °F 77% 30.09 in - ESE 4.6 mph - N/A   Clear
10:30 AM 62.6 °F 53.6 °F 72% 30.09 in - ESE 5.8 mph - N/A   Clear
11:00 AM 62.6 °F 51.8 °F 68% 30.09 in - SE 4.6 mph - N/A   Clear
11:30 AM 60.8 °F 55.4 °F 82% 30.09 in - West 4.6 mph - N/A   Clear
12:00 PM 62.6 °F 53.6 °F 72% 30.09 in - WNW 4.6 mph - N/A   Clear
12:30 PM 62.6 °F 53.6 °F 72% 30.09 in - West 4.6 mph - N/A   Clear
1:00 PM 64.4 °F 53.6 °F 68% 30.09 in 6.2 mi West 4.6 mph - N/A   Partly Cloudy
1:30 PM 62.6 °F 53.6 °F 72% 30.06 in 6.2 mi East 10.4 mph - N/A   Partly Cloudy
2:00 PM 64.4 °F 53.6 °F 68% 30.06 in 6.2 mi ESE 4.6 mph - N/A   Partly Cloudy
2:30 PM 62.6 °F 53.6 °F 72% 30.06 in 6.2 mi WNW 4.6 mph - N/A   Partly Cloudy
3:00 PM 62.6 °F 50.0 °F 63% 30.06 in 6.2 mi West 4.6 mph - N/A   Partly Cloudy
3:30 PM 60.8 °F 51.8 °F 72% 30.06 in 6.2 mi West 3.5 mph - N/A   Partly Cloudy
4:00 PM 59.0 °F 51.8 °F 77% 30.06 in 6.2 mi WNW 2.3 mph - N/A   Partly Cloudy
4:30 PM 59.0 °F 51.8 °F 77% 30.04 in 6.2 mi NNW 2.3 mph - N/A   Partly Cloudy
5:00 PM 57.2 °F 51.8 °F 82% 30.06 in - Calm Calm - N/A   Clear
5:30 PM 55.4 °F 51.8 °F 88% 30.06 in - Calm Calm - N/A   Clear
6:00 PM 55.4 °F 51.8 °F 88% 30.06 in - Calm Calm - N/A   Clear
6:30 PM 53.6 °F 50.0 °F 88% 30.06 in - West 2.3 mph - N/A   Clear
7:00 PM 53.6 °F 50.0 °F 88% 30.06 in - WNW 1.2 mph - N/A   Clear
7:30 PM 51.8 °F 50.0 °F 94% 30.06 in - Calm Calm - N/A   Clear
8:30 PM 51.8 °F 50.0 °F 94% 30.06 in - Calm Calm - N/A   Clear
9:00 PM 51.8 °F 48.2 °F 88% 30.06 in - Calm Calm - N/A   Clear
9:30 PM 50.0 °F 48.2 °F 94% 30.06 in - Calm Calm - N/A   Clear
10:00 PM 50.0 °F 46.4 °F 87% 30.06 in 6.2 mi Calm Calm - N/A   Partly Cloudy
10:30 PM 50.0 °F 48.2 °F 94% 30.06 in 6.2 mi Calm Calm - N/A   Partly Cloudy
11:00 PM 51.8 °F 48.2 °F 88% 30.06 in 6.2 mi Calm Calm - N/A   Partly Cloudy
11:30 PM 50.0 °F 48.2 °F 94% 30.06 in 6.2 mi Calm Calm - N/A   Partly Cloudy